Location: ????????
(37.6846°N, 24.0673°E)
Time: 14:16:30
(UTC+00:00)

Cosmos 1816 Rocket - Pass Details

Date: 14 July 2020
Orbit: 952 x 998 km, 82.9° (Epoch: 04 August)

Event Time Altitude Azimuth Distance (km) Brightness Sun altitude
Rises 00:37:56 0° 351° (N) 3,727 8.3 -23.5°
Reaches altitude 10° 00:40:29 10° 350° (N) 2,773 7.5 -23.2°
Maximum altitude 00:46:50 75° 266° (W) 1,031 4.4 -22.5°
Enters shadow 00:49:17 40° 190° (S) 1,430 4.9 -22.2°
